Bedford, MA

10:52 AM EST on February 10, 2016 (GMT -0500)
Hanscom

Weather History for KBED - April, 2013

Change the Weather History Date:

Tuesday, April 2, 2013

  Actual Average Record
Temperature  
Mean Temperature 34 °F -  
Max Temperature 41 °F 53 °F 77 °F (1967)
Min Temperature 28 °F 32 °F 7 °F (1964)
Degree Days  
Heating Degree Days 32    
Moisture  
Dew Point 10 °F    
Average Humidity 38    
Maximum Humidity 49    
Minimum Humidity 27    
Precipitation  
Precipitation 0.00 in - - ()
Sea Level Pressure  
Sea Level Pressure 29.90 in    
Wind  
Wind Speed 13 mph (West)    
Max Wind Speed 25 mph    
Max Gust Speed 38 mph    
Visibility 10 miles    
Events      
Averages and records for this station are not official NWS values.
T = Trace of Precipitation, MM = Missing Value Source: NWS Daily Summary

Daily Weather History Graph

Daily Weather History Graph

Search for Another Location

Airport or City:

Trip Planner

Search our weather history database for the weather conditions in past years. The results will help you decide how hot, cold, wet, or windy it might be!

Date:

Astronomy

Apr. 02, 2013 Rise Set
Actual Time 6:25 AM EDT 7:12 PM EDT
Civil Twilight 5:57 AM EDT 7:40 PM EDT
Nautical Twilight 5:23 AM EDT 8:14 PM EDT
Astronomical Twilight 4:48 AM EDT 8:50 PM EDT
Moon 1:19 AM EDT (4/2) 11:08 AM EDT (4/2)
Length of Visible Light 13h 43m
Length of Day
12h 47m
Waning Gibbous, 56% of the Moon is Illuminated
Apr 2
Waning Gibbous
Apr 3
Last Quarter
Apr 10
New
Apr 18
First Quarter
Apr 25
Full

Hourly Weather History & Observations

Time (EDT) Temp. Windchill Dew Point Humidity Pressure Visibility Wind Dir Wind Speed Gust Speed Precip Events Conditions
12:56 AM 32.0 °F 21.6 °F 10.9 °F 42% 29.85 in 10.0 mi West 15.0 mph 20.7 mph N/A   Clear
1:56 AM 30.9 °F 22.2 °F 10.0 °F 42% 29.86 in 10.0 mi West 10.4 mph - N/A   Clear
3:56 AM 28.9 °F 21.9 °F 9.0 °F 43% 29.86 in 10.0 mi WSW 6.9 mph - N/A   Clear
4:56 AM 28.0 °F 22.8 °F 9.0 °F 45% 29.87 in 10.0 mi West 4.6 mph - N/A   Clear
5:56 AM 28.9 °F 20.4 °F 10.0 °F 45% 29.89 in 10.0 mi WSW 9.2 mph - N/A   Clear
6:56 AM 28.0 °F 20.0 °F 10.9 °F 49% 29.90 in 10.0 mi WSW 8.1 mph - N/A   Clear
7:56 AM 30.9 °F 22.8 °F 12.9 °F 47% 29.92 in 10.0 mi West 9.2 mph 18.4 mph N/A   Clear
8:56 AM 33.1 °F 23.4 °F 12.9 °F 43% 29.92 in 10.0 mi West 13.8 mph 23.0 mph N/A   Clear
9:56 AM 34.0 °F 23.4 °F 10.9 °F 38% 29.92 in 10.0 mi West 17.3 mph 24.2 mph N/A   Mostly Cloudy
10:56 AM 36.0 °F 27.5 °F 10.0 °F 34% 29.91 in 10.0 mi WSW 12.7 mph 23.0 mph N/A   Mostly Cloudy
11:56 AM 37.9 °F 28.2 °F 9.0 °F 30% 29.90 in 10.0 mi West 18.4 mph 34.5 mph N/A   Mostly Cloudy
12:56 PM 39.0 °F 29.9 °F 10.0 °F 30% 29.88 in 10.0 mi West 17.3 mph 28.8 mph 0.00 in   Mostly Cloudy
1:56 PM 37.0 °F 26.7 °F 8.1 °F 30% 29.87 in 10.0 mi West 19.6 mph 32.2 mph N/A   Overcast
2:56 PM 37.0 °F 27.7 °F 9.0 °F 31% 29.86 in 10.0 mi West 16.1 mph 24.2 mph N/A   Mostly Cloudy
3:56 PM 37.9 °F 30.5 °F 9.0 °F 30% 29.86 in 10.0 mi West 11.5 mph 32.2 mph N/A   Mostly Cloudy
4:56 PM 36.0 °F 23.9 °F 5.0 °F 27% 29.87 in 10.0 mi WNW 25.3 mph 38.0 mph N/A   Scattered Clouds
5:56 PM 36.0 °F 25.3 °F 7.0 °F 30% 29.89 in 10.0 mi West 19.6 mph 28.8 mph N/A   Mostly Cloudy
6:56 PM 34.0 °F 25.5 °F 7.0 °F 32% 29.92 in 10.0 mi West 11.5 mph 29.9 mph N/A   Scattered Clouds
7:56 PM 34.0 °F 23.0 °F 7.0 °F 32% 29.94 in 10.0 mi West 18.4 mph 25.3 mph N/A   Overcast
8:56 PM 33.1 °F 23.9 °F 8.1 °F 35% 29.96 in 10.0 mi West 12.7 mph 24.2 mph N/A   Mostly Cloudy
9:56 PM 32.0 °F 24.2 °F 10.0 °F 40% 29.98 in 10.0 mi West 9.2 mph - N/A   Partly Cloudy
10:56 PM 32.0 °F 24.8 °F 12.0 °F 44% 29.97 in 10.0 mi West 8.1 mph - N/A   Mostly Cloudy
11:56 PM 32.0 °F 23.0 °F 12.0 °F 44% 29.96 in 10.0 mi West 11.5 mph 18.4 mph N/A   Mostly Cloudy